Regional Weather Roundup
Issued by NWS Memphis, TN

Home | Current Version | Previous Version | Text Only | Print | Product List | Glossary On
Versions: 1 2 3 4 5 6 7 8 9 10 11 12 13 14 15 16 17 18 19 20 21 22 23 24 25 26 27 28 29 30 31 32 33 34 35 36 37 38 39 40 41 42 43 44 45 46 47 48 49 50
000
ASUS44 KMEG 182210
RWRMEG
MEMPHIS CWA HOURLY WEATHER ROUNDUP
NATIONAL WEATHER SERVICE MEMPHIS TN
500 PM CDT FRI AUG 18 2017

...WEST TENNESSEE...

CITY           SKY/WX    TMP DP  RH WIND       PRES   REMARKS
MEMPHIS INTL   MOSUNNY   90  65  43 NW5       29.97F HX  92
NWS MEMPHIS      N/A     90 N/A N/A MISG        N/A
JACKSON        SUNNY     88  65  46 CALM      29.97F HX  90
COVINGTON      SUNNY     88  61  40 CALM      29.97S
SOMERVILLE     SUNNY     88  66  48 CALM      29.97S HX  90
BOLIVAR        SUNNY     88  64  45 VRB6      29.97S
LEXINGTON      SUNNY     86  66  51 CALM      29.96F
SELMER         SUNNY     86  63  45 NW5       29.97F
SAVANNAH       SUNNY     86  64  48 N5        29.96F
DYERSBURG      SUNNY     87  68  52 W6        29.97F HX  90
UNION CITY     SUNNY     86  68  54 W7        29.95S
PARIS          SUNNY     86  64  48 W5        29.96R
HUNTINGDON     SUNNY     86  66  51 NW3       29.96R


...EASTERN ARKANSAS...

CITY           SKY/WX    TMP DP  RH WIND       PRES   REMARKS
JONESBORO      SUNNY     87  70  56 W8        29.95F HX  92
WEST MEMPHIS   SUNNY     89  70  53 VRB3      29.95F HX  94
BATESVILLE     SUNNY     90  68  48 SW5       29.96F HX  93
NEWPORT        SUNNY     90  71  53 S7        29.96F HX  96
WALNUT RIDGE   SUNNY     88  66  48 SE8       29.95F HX  90
BLYTHEVILLE    SUNNY     87  68  52 SW6       29.96F HX  90
SEARCY         SUNNY     92  72  51 VRB5      29.97F HX  99
PINE BLUFF     SUNNY     91  76  61 SW7       29.95F HX 103
MONTICELLO     MOSUNNY   92  76  59 W5        29.95F HX 104


...NORTH MISSISSIPPI...

CITY           SKY/WX    TMP DP  RH WIND       PRES   REMARKS
TUPELO         SUNNY     91  64  40 VRB5      29.96F HX  92
OXFORD         MOSUNNY   90  66  45 N6        30.00S HX  92
BATESVILLE     MOSUNNY   89  68  48 W3        29.98S HX  93
OLIVE BRANCH   MOSUNNY  N/A N/A N/A W7        29.97S
TUNICA           N/A     88  70  55 CALM      29.97S HX  92
CLARKSDALE       N/A     91  73  55 CALM      29.96F HX 100
GREENWOOD      SUNNY     92  74  55 W5        29.95F HX 101
COLUMBUS       MOSUNNY   91  77  63 W6        29.96F HX 103
STARKVILLE     MOSUNNY   90  72  55 W3        29.98S HX  96
GOLDEN TRIANGL MOSUNNY   91  72  52 NW7       29.93F HX  98


...SOUTHEAST MISSOURI...

CITY           SKY/WX    TMP DP  RH WIND       PRES   REMARKS
KENNETT        SUNNY     90  64  43 SW8       29.94S HX  91
MALDEN         SUNNY     90  64  43 SW6       29.96S HX  91
WEST PLAINS    CLOUDY    83  63  50 SW5       30.01S
POPLAR BLUFF   SUNNY     86  69  56 SW8       29.95S HX  90
CAPE GIRARDEAU SUNNY     86  65  49 CALM      29.94S


...NORTHWEST ALABAMA...

CITY           SKY/WX    TMP DP  RH WIND       PRES   REMARKS
MUSCLE SHOALS  SUNNY     88  64  44 NW10      29.98S


...MIDDLE TENNESSEE...

CITY           SKY/WX    TMP DP  RH WIND       PRES   REMARKS
NASHVILLE      MOSUNNY   88  63  43 VRB3      29.97S
CLARKSVILLE    SUNNY     85  62  46 W7        29.96S
COLUMBIA       SUNNY     86  64  48 N5        29.96S


...WESTERN KENTUCKY...

CITY           SKY/WX    TMP DP  RH WIND       PRES   REMARKS
PADUCAH        SUNNY     87  61  41 CALM      29.94S
FORT CAMPBELL  SUNNY     85  64  48 NW6       29.96R


...CENTRAL ARKANSAS...

CITY           SKY/WX    TMP DP  RH WIND       PRES   REMARKS
LITTLE ROCK    MOSUNNY   91  71  51 VRB5      29.95F HX  97


SKY/WX REPORTED AS FAIR MEANS FEW OR NO CLOUDS BELOW
12 THOUSAND FEET.





USA.gov is the U.S. government's official web portal to all federal, state and local government web resources and services.